TimeMDT,TemperatureF,Dew PointF,Humidity,Sea Level PressureIn,VisibilityMPH,Wind Direction,Wind SpeedMPH,Gust SpeedMPH,PrecipitationIn,Events,Conditions,WindDirDegrees,DateUTC
12:56 AM,54.0,50.9,89,29.86,10.0,ESE,4.6,-,N/A,,Scattered Clouds,120,2013-07-12 06:56:00
1:56 AM,52.9,50.9,93,29.87,10.0,SE,5.8,-,N/A,,Clear,130,2013-07-12 07:56:00
2:56 AM,54.0,50.9,89,29.87,10.0,Calm,Calm,-,N/A,,Clear,0,2013-07-12 08:56:00
3:56 AM,52.0,47.8,86,29.88,10.0,East,3.5,-,N/A,,Clear,100,2013-07-12 09:56:00
4:56 AM,48.9,45.9,89,29.92,10.0,East,5.8,-,N/A,,Clear,100,2013-07-12 10:56:00
5:56 AM,46.9,45.9,96,29.95,10.0,South,4.6,-,N/A,,Clear,180,2013-07-12 11:56:00
6:56 AM,47.8,45.9,93,29.97,10.0,ESE,5.8,-,N/A,,Clear,110,2013-07-12 12:56:00
7:56 AM,55.9,48.9,77,29.96,10.0,Variable,3.5,-,N/A,,Clear,0,2013-07-12 13:56:00
8:56 AM,63.0,50.9,65,29.95,10.0,Calm,Calm,-,N/A,,Clear,0,2013-07-12 14:56:00
9:56 AM,66.9,48.9,52,29.93,10.0,Variable,6.9,-,N/A,,Clear,0,2013-07-12 15:56:00
10:56 AM,70.0,43.0,38,29.92,10.0,Variable,4.6,-,N/A,,Clear,0,2013-07-12 16:56:00
11:56 AM,73.9,41.9,32,29.90,10.0,Variable,3.5,-,N/A,,Clear,0,2013-07-12 17:56:00
12:56 PM,77.0,41.9,28,29.88,10.0,SSW,9.2,-,N/A,,Clear,200,2013-07-12 18:56:00
1:28 PM,78.8,42.8,28,30.14,10.0,SSW,12.7,17.3,N/A,,Scattered Clouds,200,2013-07-12 19:28:00
1:56 PM,77.0,41.9,28,29.88,10.0,WNW,6.9,-,N/A,,Mostly Cloudy,300,2013-07-12 19:56:00
2:56 PM,68.0,43.9,42,29.92,10.0,NW,17.3,29.9,0.01,Rain,Light Rain,320,2013-07-12 20:56:00
3:56 PM,70.0,50.0,49,29.92,10.0,SSE,9.2,-,0.00,,Mostly Cloudy,160,2013-07-12 21:56:00
4:56 PM,73.9,47.8,40,29.90,10.0,South,9.2,-,0.00,,Scattered Clouds,170,2013-07-12 22:56:00
5:56 PM,75.9,41.9,30,29.88,10.0,SSW,9.2,-,N/A,,Clear,200,2013-07-12 23:56:00
6:56 PM,75.9,41.0,29,29.88,10.0,South,16.1,-,N/A,,Clear,190,2013-07-13 00:56:00
7:56 PM,72.9,41.9,33,29.86,10.0,South,9.2,-,N/A,,Clear,180,2013-07-13 01:56:00
8:56 PM,64.9,43.0,45,29.87,10.0,SSE,9.2,-,N/A,,Clear,160,2013-07-13 02:56:00
9:56 PM,57.9,43.9,60,29.88,10.0,South,9.2,-,N/A,,Clear,180,2013-07-13 03:56:00
10:56 PM,55.9,41.9,59,29.88,10.0,SSE,8.1,-,N/A,,Clear,150,2013-07-13 04:56:00
11:56 PM,55.9,41.0,57,29.88,10.0,ESE,8.1,-,N/A,,Clear,120,2013-07-13 05:56:00